Vorticity
8 8 8 7 6 5 6 7 7 7 7 6 6 6 6 5 5 7 7 7 7 7 7 8 9 9 11 11 10 11 11 11 11 10 11 11 11 11 11 11 12 12 13 13 13 14 14 14 14 13 13 13 13 12 12 12 13 13 13 14 15 14 11 8 7 7 6 6 6 8 9 10 10 8 5 4 3 3 4 6 8 7 6 7 4 1
8 7 6 5 5 6 7 7 6 6 5 4 4 5 7 7 6 7 7 7 8 9 10 11 12 12 12 11 10 10 10 10 10 11 10 11 11 11 12 12 12 13 13 12 12 12 13 13 15 15 16 16 16 15 14 13 12 12 12 12 12 13 14 13 11 8 8 7 5 5 7 9 12 12 8 5 4 4 5 4 6 9 7 7 8 5
5 5 5 6 7 7 7 7 6 5 4 5 7 6 6 7 7 8 9 7 8 11 13 13 12 13 12 12 12 11 12 11 11 11 10 10 11 12 12 13 12 12 11 11 11 11 12 13 15 16 18 20 22 23 23 21 18 16 16 16 15 14 13 14 13 11 10 10 8 5 4 6 9 14 15 10 6 4 6 6 4 7 8 8 8 5
4 5 7 7 7 6 5 6 6 6 7 7 7 7 8 9 8 9 9 8 9 11 11 12 12 12 12 12 11 10 10 10 10 10 11 12 13 13 13 12 12 11 11 12 14 16 18 19 20 22 23 24 25 27 30 31 30 26 23 21 20 19 18 18 17 15 12 10 11 10 6 4 4 9 14 15 12 8 5 7 6 5 5 7 8 7
6 7 7 7 5 5 5 5 6 7 7 7 8 9 9 9 8 10 13 15 14 14 13 12 11 9 9 10 9 10 11 11 12 12 13 14 14 14 13 13 12 13 14 15 18 20 22 25 27 28 28 28 28 27 29 31 33 33 32 31 29 26 22 21 22 23 20 15 11 11 12 9 5 5 9 12 14 13 9 8 10 9 6 4 5 8
7 7 6 6 6 5 5 5 5 6 6 8 9 8 8 9 12 14 17 16 14 15 14 13 12 10 9 10 10 12 13 13 14 14 15 16 15 14 14 14 14 15 16 18 20 23 25 27 28 28 28 28 27 27 28 28 29 30 28 29 33 35 30 23 19 20 25 26 19 13 13 15 13 8 6 8 11 12 11 9 9 12 11 7 5 6
6 5 5 6 6 5 5 6 7 7 7 7 7 8 12 15 17 16 15 14 12 12 11 11 11 11 12 12 10 12 14 14 14 15 16 15 14 14 13 14 14 14 15 17 20 22 24 26 26 26 25 26 26 24 25 26 29 28 22 19 19 25 32 32 27 18 15 22 26 23 17 15 17 16 12 9 10 10 10 8 6 8 13 13 9 5
5 5 6 5 4 5 6 6 6 6 7 8 10 13 16 16 15 15 14 12 11 11 11 11 10 9 13 14 12 14 14 12 13 14 14 13 13 14 13 13 12 12 13 14 17 20 22 24 24 23 22 25 27 23 20 22 29 34 31 26 18 13 18 25 31 30 20 14 16 22 22 19 17 18 19 15 13 12 12 11 6 3 5 11 15 10
6 6 5 4 5 5 5 5 6 7 10 12 14 16 17 15 14 12 11 10 10 12 12 11 9 7 11 14 14 15 12 10 13 12 11 12 13 12 12 11 10 10 11 12 15 18 21 23 22 22 20 21 26 26 19 14 20 30 35 35 31 22 13 11 15 24 29 24 16 14 15 18 18 18 21 21 19 16 14 15 12 7 1 1 10 13
5 4 4 5 6 5 6 8 8 10 13 15 16 17 15 14 12 10 10 10 11 14 12 10 10 8 12 15 13 12 11 11 11 10 9 11 11 10 9 9 9 9 10 11 13 16 20 22 20 19 19 18 21 26 26 17 12 18 26 30 34 35 28 19 12 7 12 21 24 20 13 11 13 15 18 21 23 22 18 17 16 14 9 1 1 7
4 4 5 5 6 6 8 8 9 11 14 15 16 14 11 11 12 11 10 9 10 12 9 8 10 10 14 16 11 11 11 10 9 8 9 9 8 9 8 8 8 8 8 9 10 13 17 21 21 17 17 17 15 20 28 27 17 12 16 19 21 27 34 37 33 22 10 6 12 20 21 15 10 8 10 14 20 23 21 20 19 17 15 11 5 5
4 5 5 6 7 7 7 8 10 14 15 15 14 12 11 11 10 8 6 6 8 10 9 9 10 11 12 11 9 11 10 8 9 9 8 8 7 8 8 8 8 7 8 8 8 10 12 17 20 18 16 16 15 14 20 29 28 17 12 15 15 14 18 28 36 38 32 19 8 7 15 20 17 12 8 6 10 18 21 19 20 20 18 15 11 6
4 4 4 6 7 7 8 11 12 13 13 13 12 10 9 9 9 8 7 7 7 9 10 9 10 10 8 7 9 11 9 7 8 8 7 6 6 7 7 7 7 6 7 7 6 7 8 10 15 17 16 16 16 15 14 21 31 30 18 13 17 18 15 15 20 27 35 36 27 12 5 10 17 18 13 8 6 8 15 18 16 18 20 19 16 11
5 5 6 7 7 7 9 12 11 11 13 13 11 10 11 12 12 11 11 10 7 8 9 8 10 9 6 6 9 8 6 5 6 6 6 6 6 7 7 7 7 6 5 5 5 6 6 6 8 11 14 15 16 18 16 13 20 33 32 19 13 17 22 21 18 18 21 28 34 31 18 7 7 14 16 14 11 7 8 13 14 14 17 20 19 15
6 7 7 7 8 8 9 10 10 11 13 13 11 11 11 10 11 11 10 8 7 8 8 6 9 8 4 6 9 6 5 5 6 7 5 5 6 7 8 8 7 6 5 5 5 4 5 5 5 5 8 11 13 16 19 17 12 20 32 31 18 11 15 22 25 24 21 18 22 30 33 23 11 8 11 13 13 11 8 9 12 13 12 16 20 19
6 6 6 7 8 8 8 10 11 12 12 10 10 10 9 8 10 9 6 6 6 7 8 7 9 8 4 7 10 6 5 6 5 6 5 5 6 6 7 8 8 7 6 5 5 4 4 4 4 5 4 6 9 12 16 20 18 13 19 30 30 18 10 12 19 26 30 27 20 19 26 32 26 16 11 11 11 11 10 9 9 12 13 12 15 18
6 6 6 8 9 8 8 11 11 10 10 9 10 9 7 8 9 7 6 8 8 6 7 7 9 12 7 6 8 4 4 6 5 5 6 4 6 6 6 7 8 8 7 6 5 4 5 5 4 5 5 4 5 8 11 16 21 19 14 19 28 28 18 9 9 16 25 32 33 25 19 22 29 27 20 16 13 10 9 9 8 9 12 13 13 16
5 7 7 7 10 9 8 11 10 9 9 9 9 8 7 8 7 8 8 9 7 4 6 5 7 16 11 5 7 4 3 6 5 5 6 5 6 6 5 6 7 9 7 6 5 4 5 5 5 5 5 5 3 4 6 9 15 20 18 14 17 25 26 18 10 8 12 22 32 36 30 21 21 25 27 24 20 16 10 8 8 7 8 10 12 15
6 8 6 5 10 10 7 9 10 10 9 8 9 8 8 8 7 9 8 7 7 6 7 3 5 18 13 2 6 4 2 7 6 5 6 5 6 5 4 5 6 8 9 6 5 5 5 5 5 5 5 5 5 4 4 5 8 14 19 19 14 16 23 25 19 12 9 12 20 29 36 31 23 19 22 26 27 25 19 12 8 6 6 7 8 10
6 9 7 5 8 9 8 9 10 10 7 7 9 6 8 7 5 8 6 6 8 6 8 2 3 21 16 -1 4 5 2 8 6 4 6 5 6 6 3 4 5 7 9 7 6 5 6 6 6 6 5 4 5 5 4 4 5 8 14 19 19 14 15 20 23 19 13 11 14 20 28 33 31 23 19 20 25 28 27 21 14 8 4 3 3 5
7 9 8 5 6 8 9 9 10 10 7 8 8 6 8 7 5 8 6 8 8 6 10 1 -2 19 13 -5 5 7 1 8 7 5 6 4 6 7 4 3 4 7 9 8 7 5 6 7 6 6 5 4 5 5 5 4 4 6 9 13 19 18 14 13 17 20 19 16 15 17 23 27 29 28 23 19 20 24 26 26 23 18 13 6 2 2
6 8 8 7 6 8 9 8 9 9 8 9 8 6 8 7 7 8 6 10 8 5 12 2 -6 11 8 -2 10 8 -1 8 8 4 5 4 6 7 4 3 3 6 9 8 7 7 7 7 7 7 6 4 4 4 4 5 3 4 6 9 14 18 17 13 12 15 17 18 18 18 22 27 26 24 23 21 20 21 24 25 25 24 22 19 15 9
6 7 9 8 6 7 7 7 7 8 8 9 8 6 7 7 9 8 7 9 5 7 14 2 -8 6 7 5 15 6 -1 8 8 5 5 5 7 7 5 4 4 7 10 8 8 7 8 9 8 8 7 5 5 4 4 5 4 3 5 7 10 14 17 15 11 11 13 16 19 20 21 26 28 25 20 19 19 19 23 26 26 26 26 25 24 21
6 6 7 6 6 7 7 6 5 7 9 9 8 6 7 8 7 8 10 8 3 9 12 -1 -4 7 7 11 15 4 -0 8 7 6 6 4 6 7 4 3 4 8 10 8 8 8 8 10 10 10 8 6 6 5 5 4 4 4 4 5 8 11 15 16 12 9 11 14 18 22 23 23 27 27 22 19 18 17 19 23 25 26 27 27 26 25
6 7 5 5 6 6 6 6 5 7 10 10 8 7 8 8 6 7 10 7 5 9 7 1 4 7 6 12 14 3 0 7 8 7 6 6 7 7 5 3 4 9 10 8 8 8 9 11 11 11 9 9 8 7 6 6 4 4 4 5 6 8 12 16 14 9 9 14 18 23 26 26 26 27 24 20 18 17 17 19 21 22 24 27 28 27
7 7 4 4 7 6 7 8 6 6 10 10 7 8 8 7 6 8 7 6 9 7 2 6 9 4 6 13 10 3 1 5 8 9 7 7 7 7 5 3 5 9 9 8 8 8 10 11 12 11 10 10 10 8 8 7 6 5 4 5 5 7 10 14 15 11 9 12 18 24 28 29 28 28 26 21 18 17 18 17 18 18 19 22 25 27
5 7 6 4 7 8 7 8 5 4 8 9 7 8 9 7 7 6 3 7 11 3 -0 9 8 2 8 13 7 3 3 4 8 9 7 7 7 8 5 3 6 9 8 8 8 8 10 10 10 11 12 11 10 9 9 9 8 7 4 5 5 6 9 12 13 13 9 10 19 28 31 30 28 28 27 23 19 17 18 18 18 17 15 17 20 23
4 7 7 3 7 9 6 8 6 2 6 9 7 8 10 9 7 3 2 10 10 -0 -1 6 4 2 10 12 7 5 4 6 9 9 8 8 8 7 5 3 6 8 8 8 8 8 10 10 10 11 12 13 11 9 9 9 10 8 5 5 6 6 8 11 12 13 10 11 21 32 33 30 28 28 28 24 20 18 17 17 18 18 15 14 17 19
3 8 7 3 7 10 8 8 4 1 6 7 7 10 11 9 6 2 5 11 6 -2 0 4 2 5 10 10 6 5 6 7 8 9 9 8 9 7 4 4 6 8 8 8 8 9 9 9 10 11 11 13 13 10 9 9 8 8 8 6 5 6 8 9 11 13 11 11 23 35 35 27 24 27 29 27 20 17 18 18 17 17 16 14 14 17
5 7 7 3 4 10 12 7 2 3 5 4 9 14 10 7 6 4 6 9 3 -0 3 4 2 5 10 10 5 4 8 7 7 10 10 9 9 6 3 4 6 8 7 7 8 9 9 10 11 11 11 13 14 11 9 9 8 8 10 9 6 6 7 7 10 14 13 11 22 36 34 22 18 22 27 30 25 17 16 18 18 17 16 13 13 16
6 6 8 3 0 9 13 5 3 6 2 3 13 13 6 6 9 6 4 5 4 3 5 5 3 5 10 10 5 4 7 8 7 10 10 11 10 4 2 6 6 6 5 5 6 7 8 10 11 11 12 12 13 12 10 8 8 8 11 11 8 6 6 7 9 13 13 11 20 37 33 18 14 19 23 29 29 22 15 15 18 18 16 13 11 13
7 6 8 4 -1 8 12 4 4 6 2 8 14 8 6 12 9 4 3 4 5 6 5 5 3 4 9 9 5 5 7 7 7 9 10 12 10 3 3 6 6 6 4 3 5 6 8 10 11 11 12 12 13 13 11 9 8 9 11 11 10 7 5 6 8 12 14 10 19 36 32 15 11 16 21 26 29 27 19 14 15 17 16 15 11 10
9 7 7 4 1 7 10 5 4 4 4 9 10 7 11 13 6 3 3 5 8 7 6 5 3 5 8 8 6 6 7 7 7 9 12 12 8 4 5 7 7 6 5 3 4 5 6 9 12 12 12 12 13 13 12 10 9 10 11 11 11 9 6 6 8 12 13 11 18 32 30 15 9 12 17 23 27 29 25 17 15 16 16 15 14 11
10 8 6 5 3 4 8 7 4 4 4 6 9 12 12 7 4 7 6 7 9 6 6 6 3 5 8 8 8 6 5 7 8 11 15 11 4 4 7 9 8 6 6 5 3 3 5 8 12 13 13 13 14 14 12 10 10 10 10 11 12 11 7 6 8 11 13 11 16 28 29 18 10 10 15 20 25 29 29 23 16 16 16 15 14 13
10 8 6 7 4 4 8 8 4 1 3 10 15 13 9 5 7 9 7 6 8 8 10 7 3 6 9 8 9 6 4 7 8 13 16 8 3 6 8 8 9 8 7 7 4 3 5 9 13 14 14 14 14 14 12 11 11 11 10 10 12 13 10 7 8 11 13 11 14 24 30 22 13 11 14 19 24 27 29 27 20 16 16 17 15 14
9 7 7 8 5 5 7 7 6 -0 1 18 23 10 5 8 8 8 6 6 12 14 10 5 4 8 9 8 8 7 5 5 9 15 14 5 5 9 8 7 9 8 8 8 4 3 6 11 14 13 14 16 16 13 11 11 11 11 10 11 12 13 11 8 9 12 13 12 12 20 29 25 16 12 13 17 24 27 28 28 23 17 15 16 16 16
7 8 9 6 3 7 7 5 10 0 -6 13 21 10 9 11 7 8 5 3 15 17 5 2 7 8 8 9 7 7 6 5 9 14 11 5 7 9 7 8 9 8 10 8 3 4 9 12 13 13 15 17 16 13 11 11 12 11 11 12 12 13 12 10 10 12 13 12 12 18 28 28 18 12 12 15 21 27 29 28 25 19 15 15 16 16
8 8 8 4 3 11 9 5 11 -0 -11 8 20 12 13 10 5 9 3 -2 11 13 2 5 9 6 8 9 6 6 7 5 8 12 9 6 8 8 8 9 9 9 10 7 3 6 11 11 11 13 16 18 16 14 13 12 12 12 12 12 11 13 14 11 11 13 13 12 12 16 25 27 20 13 11 13 18 25 29 29 26 21 16 14 16 16
9 6 6 4 7 13 9 6 7 -5 -7 17 24 10 9 8 7 11 5 -2 6 9 5 8 9 7 9 9 6 7 8 6 7 10 9 6 7 9 9 9 10 11 9 4 4 9 11 10 10 14 18 19 16 14 13 13 13 13 13 13 12 14 14 11 12 15 14 12 12 16 23 26 22 15 12 11 15 23 29 29 27 24 18 13 15 16
9 5 4 6 10 11 6 5 3 -6 5 25 18 5 10 12 11 13 8 2 6 7 6 7 8 9 10 8 6 7 8 9 9 9 9 7 7 9 9 9 11 10 6 4 7 10 9 7 11 16 20 19 16 15 14 13 14 15 14 13 14 15 14 12 13 16 15 12 12 16 22 25 22 16 12 12 13 19 27 30 28 26 20 14 14 16
8 6 5 9 11 7 4 6 -0 -4 15 25 11 9 18 14 10 14 9 4 5 5 5 8 9 10 9 7 7 7 8 11 10 8 9 8 8 10 9 10 11 7 3 6 10 9 6 8 14 19 20 18 17 15 13 13 15 17 15 14 15 15 14 14 15 17 15 12 12 15 20 24 23 17 13 11 11 15 24 29 30 28 22 15 13 15
7 7 7 9 9 5 6 8 -2 -5 12 20 13 15 16 8 9 14 8 4 6 5 5 9 10 9 8 8 8 8 9 11 10 8 8 8 9 10 9 10 8 4 5 9 9 6 6 11 18 21 19 18 16 12 12 15 18 18 15 15 15 15 15 15 16 18 15 11 11 14 18 23 24 19 14 11 10 12 19 27 31 29 23 17 13 13
8 9 8 8 9 7 5 4 3 5 14 16 12 13 9 6 13 14 6 4 7 7 8 10 9 9 9 8 8 9 10 10 9 8 9 9 10 10 10 9 5 4 8 9 5 5 9 16 21 20 18 17 13 13 17 20 20 17 15 16 16 16 16 16 16 17 15 11 10 12 16 21 23 20 15 11 10 11 14 22 30 31 25 18 14 14
9 11 9 7 8 5 -0 4 15 19 15 9 9 11 11 11 13 11 6 6 8 9 10 10 9 10 8 6 7 9 9 9 8 9 10 10 10 10 9 6 5 7 9 6 4 8 14 19 21 19 18 17 15 19 24 23 20 17 16 16 17 16 15 15 16 16 13 11 10 11 14 19 22 21 17 12 10 11 11 17 27 32 28 21 16 14
11 10 8 4 5 4 5 15 23 18 11 10 12 13 13 12 12 8 7 7 9 9 10 9 10 9 6 4 7 9 8 9 10 10 11 11 11 10 7 5 7 9 6 3 6 14 18 21 21 19 18 19 19 22 23 19 16 15 14 14 14 14 14 14 14 15 12 10 9 10 12 17 21 22 19 13 10 10 10 12 21 29 30 24 18 16
13 10 4 1 5 10 12 19 20 14 12 13 12 11 13 11 9 7 6 8 9 9 9 10 9 6 4 5 8 9 9 10 11 11 11 11 10 7 6 7 9 7 3 4 13 19 21 21 20 19 19 19 18 17 15 12 11 11 11 12 12 12 13 13 13 13 11 9 9 9 11 15 18 21 20 15 10 9 10 10 15 24 30 27 20 16
11 6 3 3 10 14 13 16 18 14 11 12 10 12 13 8 5 6 7 8 10 10 9 10 8 5 4 6 8 9 11 11 11 11 12 10 7 6 7 9 7 3 3 10 19 22 21 19 19 18 17 15 13 12 11 10 10 10 10 11 11 11 11 12 12 11 9 8 9 10 11 13 16 21 22 17 12 9 9 10 11 17 26 30 25 18
3 3 8 10 14 15 14 16 16 7 5 11 13 12 9 6 5 7 8 9 11 10 9 9 7 5 5 6 9 11 11 11 12 12 10 7 6 8 9 8 4 3 8 18 23 21 18 18 17 15 13 12 11 11 11 11 10 10 10 10 10 10 10 10 10 10 10 10 11 11 12 13 14 18 22 20 15 10 8 9 10 12 18 26 30 25
0 10 16 14 15 16 13 14 12 3 3 12 14 9 6 6 6 8 11 12 11 9 8 8 6 4 5 9 12 12 12 12 12 10 7 6 8 10 8 4 3 6 15 23 23 18 16 16 14 12 11 11 11 11 12 11 10 9 9 9 9 9 10 10 10 11 11 12 12 13 13 13 14 16 20 22 19 13 9 8 9 10 12 18 27 32
10 19 19 17 18 16 11 12 10 3 3 10 12 9 9 9 9 12 14 11 8 7 7 6 4 5 9 13 13 12 12 12 10 6 6 8 10 9 5 3 5 13 22 25 20 15 15 15 12 11 11 11 12 12 12 10 9 9 8 9 10 10 10 10 11 11 11 12 13 14 13 13 14 15 17 21 21 17 11 8 8 9 9 10 17 27
18 17 13 13 14 11 8 8 5 1 2 9 13 13 12 13 12 12 10 8 6 6 5 5 7 11 15 15 13 12 11 9 6 7 9 10 9 5 3 5 11 20 26 22 15 14 14 13 11 11 11 11 12 12 12 10 8 8 8 9 10 10 10 10 10 11 12 13 13 14 14 14 14 14 16 19 22 20 15 10 7 8 9 9 11 17
Height
5726 5725 5724 5722 5721 5719 5718 5716 5714 5712 5710 5707 5705 5702 5700 5697 5691 5686 5682 5680 5680 5679 5676 5674 5671 5667 5663 5658 5655 5653 5650 5646 5642 5639 5635 5631 5628 5625 5621 5618 5614 5611 5607 5604 5601 5597 5594 5591 5588 5585 5583 5580 5577 5574 5572 5570 5568 5567 5566 5566 5565 5565 5565 5565 5565 5565 5565 5566 5567 5568 5570 5572 5573 5575 5576 5577 5579 5580 5581 5582 5584 5586 5587 5589 5591 5593
5724 5722 5721 5720 5717 5715 5713 5712 5710 5708 5705 5703 5701 5698 5695 5692 5688 5683 5678 5674 5673 5672 5670 5668 5666 5663 5658 5652 5649 5647 5643 5639 5636 5632 5627 5624 5620 5617 5613 5609 5606 5602 5598 5595 5591 5587 5584 5580 5577 5573 5570 5568 5565 5562 5559 5556 5554 5553 5552 5551 5551 5551 5552 5552 5552 5552 5552 5553 5554 5555 5557 5559 5561 5563 5564 5566 5567 5569 5571 5572 5574 5575 5577 5579 5581 5584
5721 5720 5719 5717 5714 5712 5710 5708 5706 5704 5702 5699 5696 5694 5691 5688 5685 5682 5676 5670 5668 5667 5665 5662 5661 5658 5652 5646 5644 5641 5637 5633 5630 5625 5621 5617 5614 5610 5606 5602 5598 5594 5590 5586 5582 5578 5574 5569 5565 5561 5557 5554 5550 5547 5544 5542 5540 5538 5537 5537 5536 5537 5537 5538 5539 5539 5539 5539 5541 5542 5544 5546 5548 5550 5552 5554 5555 5557 5559 5562 5563 5565 5567 5569 5571 5573
5719 5717 5716 5714 5712 5709 5707 5704 5702 5700 5698 5695 5693 5690 5687 5684 5680 5678 5674 5667 5662 5660 5658 5655 5654 5652 5646 5640 5638 5635 5631 5627 5623 5619 5615 5611 5607 5603 5599 5595 5591 5587 5582 5578 5574 5569 5564 5559 5554 5549 5545 5540 5536 5533 5530 5527 5524 5523 5522 5522 5522 5522 5522 5523 5524 5525 5525 5526 5527 5528 5530 5532 5535 5537 5539 5541 5543 5545 5547 5550 5552 5554 5556 5558 5560 5563
5716 5715 5713 5711 5709 5707 5704 5702 5699 5697 5695 5692 5689 5686 5683 5679 5675 5671 5668 5663 5657 5654 5651 5648 5647 5647 5641 5634 5632 5630 5625 5620 5616 5612 5609 5605 5601 5596 5592 5588 5583 5579 5575 5570 5565 5560 5555 5549 5543 5538 5533 5528 5524 5520 5517 5513 5510 5509 5508 5508 5508 5508 5508 5509 5510 5510 5511 5512 5513 5514 5516 5518 5520 5524 5526 5529 5531 5533 5535 5537 5540 5543 5545 5547 5550 5552
5713 5712 5710 5708 5706 5704 5702 5699 5697 5694 5691 5687 5684 5681 5678 5674 5670 5665 5662 5657 5652 5648 5644 5641 5639 5641 5638 5629 5625 5624 5619 5614 5611 5607 5603 5599 5595 5590 5586 5582 5577 5572 5568 5563 5557 5552 5546 5540 5534 5528 5522 5518 5513 5509 5506 5502 5499 5498 5497 5495 5495 5495 5495 5496 5497 5497 5498 5499 5499 5501 5502 5504 5506 5509 5513 5516 5518 5521 5523 5525 5527 5530 5533 5536 5539 5541
5710 5709 5707 5705 5703 5701 5698 5696 5693 5690 5687 5683 5680 5677 5672 5668 5664 5661 5657 5652 5648 5643 5639 5636 5632 5633 5633 5625 5620 5618 5613 5609 5605 5601 5597 5593 5589 5585 5580 5576 5571 5566 5561 5555 5550 5544 5538 5532 5526 5521 5515 5510 5505 5501 5497 5493 5490 5487 5486 5485 5484 5483 5483 5483 5484 5486 5487 5486 5486 5488 5489 5491 5493 5495 5499 5502 5505 5507 5510 5513 5515 5517 5520 5524 5527 5530
5707 5705 5704 5702 5700 5697 5694 5692 5689 5686 5683 5679 5676 5672 5668 5664 5659 5656 5653 5647 5644 5639 5635 5632 5627 5626 5626 5621 5616 5614 5608 5604 5601 5597 5592 5588 5584 5579 5575 5570 5565 5560 5555 5550 5544 5538 5532 5526 5520 5515 5509 5504 5499 5494 5490 5486 5482 5479 5477 5475 5474 5473 5473 5472 5473 5474 5475 5475 5475 5476 5478 5479 5480 5482 5485 5488 5491 5494 5497 5500 5503 5505 5508 5511 5515 5518
5704 5702 5700 5699 5697 5694 5691 5688 5685 5682 5678 5674 5671 5667 5664 5660 5655 5651 5648 5643 5639 5635 5631 5628 5624 5622 5622 5616 5611 5609 5604 5600 5597 5592 5588 5583 5578 5574 5569 5564 5559 5554 5549 5543 5538 5532 5526 5520 5514 5509 5504 5498 5493 5488 5483 5480 5476 5472 5469 5467 5465 5464 5463 5462 5462 5463 5463 5464 5465 5466 5467 5467 5469 5470 5473 5475 5478 5480 5483 5486 5489 5492 5495 5498 5502 5506
5701 5699 5697 5695 5693 5690 5687 5684 5681 5677 5674 5670 5666 5662 5658 5655 5652 5647 5644 5640 5636 5631 5627 5624 5620 5617 5617 5613 5606 5603 5599 5595 5591 5587 5583 5578 5573 5568 5563 5558 5553 5548 5542 5537 5531 5526 5520 5515 5509 5504 5498 5492 5487 5482 5477 5473 5470 5466 5463 5460 5457 5454 5453 5452 5452 5452 5453 5453 5454 5455 5456 5457 5458 5459 5461 5463 5466 5468 5470 5473 5476 5479 5482 5485 5488 5492
5699 5696 5694 5691 5689 5686 5683 5680 5676 5672 5668 5664 5661 5657 5654 5651 5648 5645 5641 5636 5632 5628 5623 5619 5615 5610 5608 5606 5602 5597 5593 5590 5586 5582 5577 5572 5567 5562 5557 5552 5547 5542 5536 5531 5526 5520 5515 5509 5504 5498 5493 5487 5482 5476 5471 5467 5463 5460 5456 5453 5450 5447 5445 5443 5442 5442 5443 5444 5445 5445 5445 5446 5447 5448 5449 5451 5453 5456 5458 5461 5463 5466 5468 5472 5475 5478
5696 5693 5689 5687 5684 5681 5678 5674 5670 5667 5663 5660 5657 5654 5651 5647 5644 5641 5638 5633 5629 5624 5619 5614 5610 5606 5602 5600 5596 5592 5588 5585 5581 5576 5572 5567 5562 5557 5552 5546 5541 5536 5531 5525 5520 5515 5509 5504 5499 5493 5487 5482 5476 5471 5466 5461 5456 5453 5449 5446 5444 5441 5438 5436 5434 5433 5433 5434 5435 5435 5435 5435 5435 5437 5438 5440 5442 5443 5446 5449 5451 5454 5456 5459 5462 5465
5692 5689 5685 5682 5678 5676 5673 5669 5666 5663 5660 5657 5654 5651 5647 5644 5641 5637 5633 5630 5626 5621 5615 5610 5606 5602 5599 5595 5591 5587 5583 5579 5576 5571 5567 5562 5557 5552 5546 5541 5535 5530 5524 5519 5514 5509 5503 5498 5492 5487 5482 5476 5471 5466 5461 5456 5451 5446 5443 5439 5437 5434 5431 5429 5427 5425 5424 5423 5424 5424 5425 5425 5425 5426 5427 5428 5430 5432 5434 5437 5440 5442 5445 5447 5449 5452
5688 5685 5682 5679 5675 5672 5669 5665 5662 5659 5656 5653 5650 5646 5642 5638 5634 5630 5627 5624 5621 5618 5612 5607 5601 5597 5595 5591 5586 5582 5578 5573 5570 5566 5561 5557 5552 5547 5541 5535 5530 5524 5519 5514 5508 5503 5497 5491 5486 5481 5476 5471 5466 5460 5455 5450 5445 5441 5436 5433 5430 5428 5424 5422 5420 5417 5416 5414 5414 5413 5414 5414 5415 5415 5416 5417 5418 5420 5422 5424 5427 5430 5433 5435 5438 5440
5685 5682 5679 5675 5671 5668 5664 5661 5658 5654 5651 5647 5644 5640 5636 5632 5628 5624 5621 5618 5615 5614 5610 5604 5598 5592 5589 5587 5582 5578 5574 5569 5565 5561 5556 5552 5547 5542 5536 5530 5525 5520 5514 5508 5502 5497 5491 5486 5481 5475 5470 5465 5459 5454 5449 5444 5439 5435 5430 5426 5423 5420 5418 5415 5412 5410 5408 5406 5405 5404 5403 5404 5404 5404 5405 5406 5407 5408 5410 5412 5415 5418 5420 5423 5426 5429
5681 5678 5675 5671 5667 5663 5660 5656 5652 5649 5645 5642 5638 5635 5631 5628 5625 5620 5617 5613 5609 5607 5606 5602 5597 5590 5585 5582 5577 5573 5570 5564 5560 5556 5551 5546 5541 5536 5531 5525 5520 5515 5509 5503 5497 5492 5486 5480 5475 5469 5464 5459 5453 5448 5443 5438 5433 5429 5425 5421 5417 5413 5410 5408 5405 5402 5400 5398 5396 5395 5394 5393 5393 5393 5394 5395 5396 5397 5398 5400 5402 5405 5408 5410 5414 5417
5676 5674 5671 5667 5663 5659 5655 5651 5647 5643 5640 5636 5633 5630 5627 5623 5621 5617 5613 5609 5604 5601 5599 5596 5593 5587 5580 5577 5573 5567 5564 5559 5554 5550 5545 5539 5534 5529 5525 5520 5515 5509 5503 5498 5492 5486 5481 5476 5470 5464 5459 5453 5448 5443 5437 5432 5427 5423 5418 5414 5411 5407 5403 5400 5397 5394 5392 5389 5387 5385 5384 5383 5382 5382 5383 5383 5384 5385 5387 5388 5390 5392 5395 5398 5401 5404
5672 5669 5666 5663 5659 5654 5650 5646 5642 5639 5635 5632 5628 5625 5622 5618 5616 5612 5608 5604 5599 5595 5593 5591 5587 5582 5574 5571 5568 5562 5558 5554 5548 5543 5539 5534 5528 5523 5519 5514 5509 5504 5498 5493 5487 5481 5476 5470 5465 5460 5454 5448 5443 5438 5433 5427 5422 5417 5412 5407 5403 5400 5397 5393 5390 5386 5383 5380 5378 5376 5374 5372 5371 5371 5371 5372 5373 5374 5375 5376 5378 5380 5382 5385 5388 5391
5668 5665 5662 5658 5654 5650 5646 5641 5638 5634 5631 5628 5624 5620 5617 5614 5610 5607 5602 5599 5593 5588 5586 5584 5583 5578 5569 5563 5562 5556 5552 5549 5543 5537 5532 5527 5522 5517 5513 5508 5503 5498 5493 5487 5482 5476 5470 5465 5459 5454 5448 5443 5438 5432 5427 5422 5417 5411 5406 5401 5397 5392 5389 5386 5382 5379 5375 5371 5368 5366 5363 5362 5360 5360 5360 5360 5360 5362 5363 5364 5366 5368 5370 5372 5375 5378
5665 5661 5657 5654 5651 5646 5642 5638 5633 5630 5626 5623 5620 5616 5614 5610 5606 5603 5599 5594 5588 5582 5578 5575 5576 5576 5566 5557 5556 5550 5545 5542 5536 5531 5527 5521 5516 5511 5506 5502 5497 5492 5487 5482 5477 5471 5465 5460 5454 5448 5443 5437 5432 5427 5422 5417 5411 5406 5401 5396 5391 5386 5382 5378 5374 5371 5367 5363 5359 5356 5353 5351 5349 5349 5349 5349 5349 5349 5350 5351 5353 5355 5357 5359 5362 5365
5661 5657 5653 5649 5646 5643 5639 5635 5630 5626 5623 5619 5616 5612 5609 5606 5602 5599 5595 5591 5585 5579 5574 5568 5567 5571 5565 5554 5550 5545 5539 5536 5531 5526 5522 5516 5511 5505 5500 5495 5491 5486 5482 5476 5471 5466 5460 5455 5449 5443 5437 5431 5426 5420 5415 5411 5406 5401 5396 5390 5385 5380 5375 5371 5367 5363 5359 5355 5351 5347 5344 5341 5339 5337 5337 5337 5337 5337 5337 5338 5340 5342 5343 5346 5349 5351
5658 5654 5650 5645 5642 5638 5635 5631 5627 5623 5619 5616 5612 5608 5605 5601 5597 5593 5590 5587 5582 5576 5571 5564 5559 5564 5562 5552 5546 5540 5534 5531 5526 5521 5517 5511 5505 5499 5494 5489 5484 5480 5475 5470 5465 5460 5454 5449 5444 5438 5432 5426 5420 5415 5409 5404 5399 5394 5389 5384 5379 5374 5369 5364 5359 5355 5350 5346 5343 5338 5334 5331 5328 5327 5325 5325 5325 5325 5326 5327 5328 5329 5331 5333 5336 5338
5654 5650 5647 5642 5638 5635 5631 5628 5624 5620 5616 5613 5609 5604 5600 5596 5592 5588 5584 5581 5577 5571 5566 5558 5552 5555 5555 5548 5541 5535 5529 5526 5521 5516 5511 5506 5500 5493 5488 5483 5477 5472 5468 5463 5458 5453 5448 5443 5438 5432 5426 5420 5414 5409 5403 5397 5392 5387 5382 5377 5372 5367 5362 5356 5351 5347 5342 5337 5333 5329 5325 5321 5318 5316 5315 5314 5314 5314 5315 5315 5316 5317 5319 5321 5323 5325
5650 5647 5643 5640 5636 5632 5628 5625 5621 5617 5613 5610 5605 5600 5596 5591 5587 5583 5579 5575 5572 5567 5561 5552 5545 5545 5547 5543 5537 5529 5524 5520 5515 5510 5505 5500 5494 5487 5481 5477 5472 5466 5461 5456 5450 5445 5440 5436 5431 5425 5420 5414 5408 5402 5396 5391 5385 5379 5374 5369 5364 5359 5354 5348 5343 5339 5333 5328 5324 5319 5315 5312 5308 5306 5304 5303 5303 5303 5304 5304 5305 5306 5307 5308 5310 5312
5646 5643 5639 5636 5633 5630 5626 5622 5617 5613 5610 5606 5602 5597 5592 5587 5581 5578 5574 5570 5567 5563 5557 5549 5540 5538 5539 5536 5530 5523 5518 5514 5508 5502 5498 5493 5487 5481 5476 5471 5465 5460 5455 5449 5444 5439 5434 5428 5424 5418 5413 5407 5401 5396 5390 5384 5378 5372 5367 5361 5356 5351 5345 5340 5335 5330 5325 5320 5315 5310 5305 5301 5298 5295 5294 5293 5292 5292 5292 5293 5294 5294 5295 5296 5298 5300
5643 5639 5635 5631 5628 5625 5622 5617 5613 5609 5605 5602 5599 5594 5588 5583 5577 5573 5569 5565 5562 5558 5554 5547 5538 5533 5535 5532 5523 5516 5511 5508 5504 5497 5492 5487 5481 5475 5470 5464 5459 5453 5448 5443 5437 5432 5426 5421 5416 5411 5405 5400 5394 5389 5383 5377 5371 5365 5359 5353 5347 5342 5337 5332 5327 5321 5316 5311 5305 5300 5295 5290 5287 5285 5283 5283 5282 5282 5282 5282 5283 5283 5284 5285 5287 5289
5639 5636 5632 5627 5624 5621 5618 5614 5608 5604 5601 5598 5595 5591 5585 5579 5573 5569 5565 5561 5557 5551 5548 5546 5535 5526 5530 5529 5519 5512 5506 5500 5497 5493 5487 5482 5475 5469 5463 5458 5453 5448 5442 5436 5431 5425 5419 5413 5408 5403 5398 5393 5387 5381 5375 5370 5364 5358 5352 5346 5341 5334 5329 5323 5317 5312 5306 5301 5295 5289 5284 5280 5276 5274 5273 5272 5272 5272 5272 5272 5272 5273 5274 5275 5276 5278
5635 5632 5629 5623 5620 5617 5614 5610 5605 5599 5596 5593 5591 5588 5583 5576 5569 5565 5561 5557 5552 5544 5539 5541 5532 5520 5521 5522 5514 5508 5502 5495 5490 5486 5481 5477 5471 5463 5458 5453 5449 5443 5437 5431 5425 5419 5413 5407 5402 5396 5391 5385 5379 5374 5368 5362 5356 5350 5344 5339 5333 5327 5321 5314 5308 5303 5297 5291 5285 5279 5274 5270 5267 5264 5262 5262 5262 5261 5261 5261 5262 5263 5264 5265 5266 5267
5631 5629 5625 5620 5616 5613 5610 5606 5601 5596 5592 5589 5587 5583 5578 5572 5565 5560 5556 5552 5546 5539 5533 5532 5527 5518 5515 5512 5507 5503 5497 5490 5486 5481 5475 5471 5466 5458 5453 5448 5444 5438 5432 5426 5420 5413 5408 5401 5395 5390 5384 5378 5372 5366 5360 5354 5348 5343 5337 5332 5326 5320 5313 5307 5300 5294 5289 5283 5276 5270 5265 5261 5258 5255 5253 5252 5252 5252 5251 5251 5252 5253 5254 5255 5256 5257
5627 5624 5621 5616 5613 5611 5607 5601 5596 5591 5587 5584 5583 5580 5574 5567 5560 5554 5551 5547 5540 5533 5529 5524 5518 5514 5512 5506 5499 5497 5492 5484 5480 5475 5470 5465 5460 5453 5446 5441 5437 5432 5425 5419 5414 5408 5402 5395 5389 5383 5377 5371 5365 5359 5353 5347 5341 5335 5330 5324 5319 5313 5306 5299 5293 5286 5280 5274 5268 5262 5257 5254 5251 5248 5245 5243 5242 5242 5242 5242 5242 5243 5244 5245 5246 5247
5622 5619 5616 5611 5608 5607 5604 5598 5592 5587 5581 5578 5579 5576 5569 5563 5556 5550 5546 5542 5534 5528 5525 5519 5510 5508 5508 5502 5493 5490 5486 5480 5474 5469 5464 5459 5452 5446 5441 5435 5429 5424 5419 5413 5407 5401 5395 5388 5382 5375 5369 5363 5357 5351 5346 5340 5334 5328 5323 5317 5312 5305 5299 5292 5286 5279 5272 5266 5260 5254 5250 5246 5243 5240 5238 5236 5234 5233 5233 5233 5233 5234 5234 5235 5236 5237
5617 5613 5611 5606 5601 5601 5599 5593 5588 5582 5576 5574 5574 5571 5566 5560 5553 5546 5541 5537 5530 5523 5519 5513 5505 5501 5500 5495 5488 5484 5479 5474 5469 5463 5458 5453 5446 5438 5434 5429 5422 5416 5411 5406 5400 5393 5387 5380 5374 5367 5362 5356 5350 5344 5338 5332 5327 5321 5315 5310 5304 5298 5291 5285 5278 5272 5265 5259 5253 5247 5243 5239 5236 5233 5230 5228 5226 5225 5224 5224 5224 5224 5225 5225 5226 5227
5613 5608 5605 5600 5595 5594 5592 5587 5582 5576 5570 5570 5569 5566 5561 5555 5548 5541 5537 5532 5526 5520 5514 5507 5501 5497 5493 5486 5480 5477 5472 5467 5462 5457 5451 5445 5439 5432 5426 5421 5415 5409 5403 5397 5391 5385 5379 5373 5366 5360 5354 5348 5342 5335 5329 5323 5318 5313 5307 5301 5295 5289 5283 5277 5271 5264 5258 5252 5246 5240 5236 5232 5229 5226 5223 5220 5218 5217 5216 5216 5216 5216 5216 5216 5217 5218
5608 5604 5600 5595 5589 5587 5586 5581 5576 5569 5564 5563 5563 5560 5555 5549 5542 5536 5532 5527 5521 5516 5509 5501 5495 5492 5487 5480 5474 5469 5465 5461 5456 5451 5445 5437 5430 5426 5421 5415 5408 5402 5396 5389 5383 5377 5371 5366 5360 5353 5346 5339 5333 5326 5320 5314 5309 5304 5299 5293 5287 5281 5275 5269 5263 5257 5251 5245 5239 5234 5229 5225 5222 5219 5216 5213 5210 5209 5208 5207 5207 5207 5207 5208 5209 5210
5604 5599 5594 5590 5584 5581 5580 5575 5568 5562 5559 5557 5555 5552 5547 5542 5535 5529 5526 5524 5518 5511 5503 5496 5491 5488 5482 5475 5469 5462 5458 5455 5451 5446 5440 5431 5423 5418 5414 5409 5403 5396 5389 5384 5377 5371 5365 5358 5352 5345 5338 5331 5324 5318 5312 5306 5301 5296 5291 5285 5279 5273 5267 5261 5255 5250 5244 5239 5233 5227 5222 5218 5215 5212 5209 5206 5203 5201 5199 5199 5199 5199 5199 5199 5200 5201
5599 5594 5589 5585 5579 5575 5573 5569 5560 5554 5554 5555 5552 5546 5540 5534 5528 5521 5517 5518 5516 5508 5498 5491 5487 5483 5476 5470 5464 5457 5451 5448 5446 5441 5434 5425 5418 5412 5407 5402 5397 5390 5384 5378 5371 5365 5358 5351 5344 5337 5330 5323 5316 5310 5304 5298 5292 5288 5283 5276 5270 5265 5259 5254 5248 5242 5237 5231 5226 5221 5215 5211 5208 5205 5202 5199 5196 5193 5191 5190 5190 5191 5191 5192 5193 5193
5594 5589 5585 5580 5574 5569 5565 5561 5553 5546 5546 5550 5549 5542 5534 5527 5522 5514 5507 5509 5513 5505 5492 5486 5482 5476 5470 5464 5458 5451 5445 5440 5439 5436 5428 5420 5414 5407 5401 5395 5389 5384 5378 5371 5364 5357 5350 5343 5337 5329 5322 5315 5308 5301 5295 5290 5284 5279 5274 5268 5262 5257 5252 5246 5240 5235 5229 5224 5219 5214 5209 5205 5201 5198 5195 5192 5189 5186 5184 5182 5182 5182 5182 5184 5185 5185
5590 5585 5581 5574 5568 5565 5558 5552 5546 5540 5537 5540 5539 5534 5527 5520 5514 5507 5497 5498 5505 5498 5486 5480 5476 5469 5463 5457 5450 5445 5438 5432 5431 5429 5420 5413 5408 5402 5395 5389 5382 5375 5369 5363 5356 5349 5341 5334 5328 5321 5314 5307 5300 5293 5287 5282 5276 5271 5265 5260 5254 5249 5244 5239 5233 5227 5222 5217 5212 5207 5202 5198 5195 5192 5189 5185 5182 5179 5177 5175 5174 5174 5174 5175 5177 5178
5585 5580 5576 5569 5564 5560 5553 5545 5540 5533 5531 5534 5530 5524 5518 5511 5506 5499 5488 5488 5493 5488 5478 5474 5469 5461 5456 5450 5443 5438 5431 5423 5421 5419 5410 5403 5399 5393 5387 5381 5375 5367 5360 5353 5347 5341 5334 5326 5319 5312 5305 5299 5292 5285 5279 5274 5269 5263 5258 5252 5247 5242 5236 5231 5225 5220 5215 5210 5205 5201 5196 5192 5188 5185 5182 5179 5176 5172 5170 5168 5167 5166 5166 5167 5168 5170
5580 5575 5571 5565 5560 5555 5547 5540 5534 5529 5528 5529 5523 5516 5511 5504 5499 5491 5481 5477 5480 5476 5470 5466 5460 5454 5449 5442 5436 5432 5425 5415 5411 5408 5401 5392 5387 5382 5377 5372 5366 5359 5352 5345 5338 5331 5325 5318 5311 5305 5297 5290 5284 5278 5272 5266 5261 5256 5250 5244 5239 5234 5229 5224 5218 5213 5208 5203 5199 5194 5190 5185 5182 5179 5176 5173 5170 5166 5163 5161 5160 5159 5159 5159 5160 5162
5575 5571 5566 5561 5555 5550 5541 5533 5527 5526 5528 5524 5515 5509 5505 5498 5492 5486 5477 5471 5469 5465 5462 5458 5452 5446 5442 5435 5429 5424 5419 5411 5404 5399 5393 5385 5378 5373 5367 5361 5356 5350 5344 5338 5330 5323 5317 5310 5303 5296 5290 5283 5276 5270 5264 5259 5254 5248 5242 5236 5231 5226 5221 5216 5211 5206 5201 5196 5192 5187 5183 5179 5176 5173 5169 5166 5164 5161 5157 5154 5153 5152 5152 5152 5153 5154
5570 5566 5561 5556 5549 5543 5536 5526 5518 5518 5523 5519 5509 5504 5499 5492 5486 5480 5473 5468 5463 5458 5453 5449 5444 5439 5433 5428 5422 5416 5412 5406 5398 5391 5386 5379 5372 5366 5359 5353 5348 5342 5336 5329 5322 5315 5309 5302 5295 5288 5281 5275 5268 5262 5256 5251 5245 5240 5234 5229 5224 5219 5214 5210 5205 5200 5195 5190 5185 5180 5176 5173 5170 5167 5164 5161 5158 5155 5152 5149 5147 5145 5145 5145 5146 5146
5566 5560 5555 5550 5544 5536 5529 5522 5514 5511 5511 5510 5503 5496 5491 5487 5481 5474 5468 5463 5459 5453 5447 5441 5437 5432 5425 5420 5415 5409 5404 5398 5392 5385 5379 5372 5366 5360 5353 5347 5341 5334 5328 5322 5315 5308 5301 5294 5287 5280 5273 5266 5260 5253 5247 5242 5237 5232 5226 5222 5217 5212 5208 5203 5198 5194 5189 5184 5179 5174 5170 5166 5163 5160 5158 5155 5152 5149 5146 5143 5141 5139 5138 5138 5139 5139
5562 5556 5548 5543 5538 5530 5522 5518 5515 5510 5505 5501 5498 5493 5486 5480 5476 5469 5463 5458 5454 5448 5441 5435 5430 5426 5418 5412 5408 5403 5397 5391 5384 5378 5372 5365 5359 5353 5346 5340 5333 5327 5321 5314 5307 5300 5293 5286 5279 5272 5265 5258 5252 5245 5240 5234 5229 5224 5219 5214 5210 5206 5201 5196 5191 5187 5183 5178 5173 5169 5164 5160 5156 5153 5151 5149 5147 5144 5141 5138 5135 5133 5132 5132 5132 5133
5558 5552 5543 5538 5533 5527 5520 5516 5513 5508 5500 5494 5491 5489 5483 5475 5469 5463 5456 5451 5447 5441 5434 5427 5422 5418 5411 5404 5399 5394 5389 5382 5376 5370 5364 5357 5351 5345 5338 5332 5325 5318 5312 5305 5298 5292 5285 5278 5271 5264 5258 5251 5244 5238 5233 5227 5222 5218 5212 5208 5204 5199 5194 5190 5185 5181 5177 5172 5168 5163 5159 5154 5150 5146 5144 5142 5140 5138 5136 5133 5130 5127 5126 5125 5125 5126
5552 5544 5536 5531 5526 5521 5519 5517 5511 5502 5495 5489 5484 5481 5476 5469 5463 5457 5449 5443 5440 5434 5428 5420 5414 5409 5404 5396 5390 5385 5379 5373 5367 5361 5355 5348 5343 5336 5329 5323 5316 5310 5303 5297 5290 5283 5276 5270 5263 5257 5251 5244 5237 5231 5227 5221 5215 5211 5206 5201 5197 5193 5188 5183 5179 5174 5170 5166 5162 5157 5153 5149 5145 5140 5137 5135 5133 5131 5130 5127 5125 5122 5120 5118 5118 5119
5544 5536 5529 5524 5520 5513 5511 5513 5508 5497 5490 5484 5478 5474 5470 5463 5457 5451 5443 5436 5432 5427 5421 5415 5408 5402 5396 5389 5382 5376 5371 5365 5358 5352 5347 5340 5334 5328 5321 5314 5308 5301 5294 5288 5282 5275 5269 5262 5256 5250 5244 5238 5231 5226 5220 5215 5209 5204 5199 5195 5191 5186 5181 5176 5172 5168 5163 5159 5155 5151 5147 5143 5139 5135 5131 5128 5126 5124 5122 5121 5119 5117 5115 5112 5112 5112
5535 5528 5522 5518 5515 5508 5503 5503 5499 5492 5487 5482 5473 5467 5462 5456 5450 5445 5438 5430 5425 5419 5413 5408 5401 5394 5388 5382 5374 5367 5363 5357 5350 5344 5339 5333 5325 5319 5312 5306 5299 5293 5286 5279 5273 5267 5261 5255 5249 5243 5237 5231 5226 5220 5214 5208 5202 5197 5193 5188 5184 5179 5174 5169 5165 5160 5156 5152 5148 5144 5140 5136 5133 5129 5126 5122 5119 5117 5116 5114 5113 5111 5109 5107 5106 5106
5527 5522 5516 5510 5507 5504 5500 5495 5488 5481 5481 5480 5473 5463 5455 5448 5442 5438 5432 5425 5418 5411 5405 5400 5395 5387 5380 5373 5367 5360 5355 5350 5343 5336 5331 5325 5318 5311 5304 5297 5291 5284 5277 5271 5265 5258 5253 5247 5241 5236 5230 5224 5219 5213 5207 5201 5196 5190 5186 5181 5177 5172 5167 5162 5158 5153 5148 5144 5140 5136 5133 5129 5125 5122 5119 5116 5113 5111 5109 5107 5106 5105 5103 5101 5099 5099
5521 5517 5511 5503 5498 5495 5493 5488 5479 5469 5466 5468 5466 5458 5449 5441 5434 5430 5425 5418 5412 5405 5398 5392 5387 5381 5373 5366 5360 5353 5347 5342 5336 5329 5323 5317 5309 5302 5296 5289 5282 5276 5269 5263 5257 5250 5245 5239 5234 5228 5223 5217 5212 5206 5200 5194 5188 5183 5178 5174 5169 5164 5159 5155 5150 5146 5141 5136 5132 5129 5125 5121 5118 5115 5112 5109 5107 5104 5102 5100 5099 5098 5097 5095 5093 5092
5518 5512 5506 5498 5492 5488 5485 5480 5474 5465 5458 5457 5455 5449 5442 5435 5428 5422 5417 5411 5404 5398 5391 5384 5378 5373 5367 5360 5353 5346 5340 5334 5328 5321 5315 5309 5301 5294 5288 5281 5274 5267 5261 5254 5249 5243 5237 5231 5226 5221 5215 5210 5204 5199 5193 5187 5181 5176 5171 5166 5161 5156 5151 5147 5143 5138 5133 5128 5125 5121 5117 5114 5110 5107 5104 5102 5099 5097 5096 5094 5092 5090 5089 5089 5088 5086